ECMWFFLT1_925_thetae_057.txt.gz
Theta_e
298 299 300 301 301 302 303 303 303 302 302 302 302 302 302 301 300 298 297 298 299 299 298 297 296 293 291 290 290 290 290 290 290 290 290 290 290 290 290 290 290 289 289 290 290 289 289 289 289 289 289 289 288 287 287 286 286 285 285 285 284 284
298 299 299 300 301 301 302 303 302 301 301 301 301 301 301 300 299 298 296 296 297 298 297 296 294 291 289 289 289 289 289 290 290 290 290 290 290 290 290 289 289 289 289 289 289 289 288 288 288 289 289 288 288 287 287 286 285 285 284 284 284 284
297 298 299 299 300 300 301 301 301 301 300 300 299 299 299 299 298 297 296 295 295 296 296 294 292 290 289 288 289 289 289 289 290 290 290 289 289 289 289 289 289 289 289 289 289 289 288 288 288 288 288 288 287 287 286 286 285 285 284 284 284 283
296 297 298 298 298 299 299 300 300 300 300 299 298 298 299 299 297 296 295 294 294 294 294 293 290 289 288 288 288 289 289 289 290 289 289 289 289 289 289 289 289 289 289 289 289 289 288 288 289 288 288 287 287 286 286 285 285 285 284 283 283 283
296 296 296 297 297 297 298 298 299 299 299 298 298 298 298 299 298 296 295 294 293 293 292 291 289 288 288 288 288 288 288 289 289 289 289 289 289 289 289 289 289 289 289 288 288 288 288 288 288 288 288 287 287 286 286 285 285 284 284 284 283 283
295 295 295 295 296 296 297 297 297 298 298 297 297 297 298 298 297 295 294 293 293 292 291 290 289 288 288 288 288 288 288 289 289 288 288 288 288 288 288 288 288 288 288 288 288 288 288 288 288 287 287 287 286 286 286 285 285 284 284 283 283 283
295 294 294 295 295 296 296 296 296 296 296 297 297 297 297 297 296 294 293 293 292 291 290 289 289 288 288 288 288 288 288 288 288 288 288 288 288 288 288 288 288 288 288 288 288 288 288 288 287 287 287 286 286 286 285 285 285 284 283 283 283 283
294 293 294 294 295 295 295 295 296 295 295 296 296 296 296 296 295 294 293 292 291 291 289 289 288 288 288 287 287 288 288 288 288 287 287 287 288 288 288 288 288 288 288 288 288 287 288 288 287 287 287 286 286 285 285 285 284 284 283 283 283 282
295 294 293 294 294 295 295 295 295 295 295 295 296 296 295 295 294 293 293 292 291 291 290 289 288 288 287 287 287 287 287 288 287 287 287 287 288 288 288 288 287 287 288 287 287 287 287 287 287 287 286 286 286 285 285 285 284 284 283 283 282 282
296 294 293 293 294 294 294 295 295 295 295 294 295 295 294 294 294 293 292 291 291 291 290 289 288 288 287 287 287 287 287 287 287 287 287 287 288 288 288 288 287 287 287 287 287 287 287 287 287 286 286 286 285 285 285 285 284 284 283 282 282 282
296 295 293 293 293 293 293 294 294 294 294 294 294 294 294 293 293 292 292 291 291 291 290 289 288 287 287 287 287 287 287 287 287 286 287 287 288 288 287 287 287 287 287 287 286 287 287 287 286 286 286 286 285 285 285 285 285 284 283 283 282 282
296 294 293 293 293 293 293 293 293 294 294 293 293 293 293 292 292 292 291 290 290 290 289 289 288 287 287 286 286 286 286 286 286 286 287 287 287 287 287 287 287 287 286 286 286 286 286 286 286 286 286 286 286 286 285 285 285 284 283 283 282 282
296 294 293 293 293 293 293 293 293 293 293 293 293 292 292 291 291 291 290 290 290 289 289 288 287 286 286 286 286 286 286 286 286 286 286 287 287 286 286 286 286 286 286 286 286 286 286 286 286 286 286 286 286 286 285 285 285 284 283 283 283 283
297 295 294 293 293 293 293 293 293 293 292 292 292 291 291 291 291 290 290 290 289 289 288 288 287 286 286 286 285 285 285 285 285 286 286 286 286 286 286 286 286 286 286 286 286 286 286 286 286 286 286 286 286 285 285 285 285 284 284 283 283 283
296 295 294 293 293 293 293 293 293 292 292 292 291 291 290 290 290 290 289 289 289 288 288 288 287 286 286 286 285 285 285 285 285 285 286 285 285 285 285 285 286 286 286 286 286 286 286 287 286 286 286 286 286 286 285 285 285 284 284 283 283 283
295 295 294 294 294 293 293 293 293 292 292 291 291 290 290 289 289 289 289 289 289 289 288 287 287 287 286 286 285 285 285 285 285 285 285 285 285 285 285 285 285 286 286 286 286 286 286 287 287 286 286 286 286 286 286 286 285 284 284 284 284 284
295 294 294 294 294 293 293 292 292 292 292 291 291 290 290 289 289 289 289 289 288 288 287 287 287 286 286 286 286 285 285 285 285 284 284 284 284 285 285 285 286 286 286 286 286 286 287 287 287 286 286 286 286 286 285 285 285 284 284 284 284 284
295 295 295 294 294 293 292 292 292 292 291 291 291 290 289 289 288 288 288 288 288 287 287 287 287 286 286 286 286 285 285 285 284 284 284 284 284 284 285 285 286 286 286 286 286 286 287 287 287 286 286 286 286 285 285 285 285 284 284 284 284 284
297 297 295 294 294 293 293 292 291 291 291 290 290 289 289 288 288 288 288 288 287 287 287 287 287 286 286 286 285 285 285 284 284 284 284 284 284 284 285 285 286 286 286 286 286 287 287 287 287 287 286 286 285 284 284 284 284 284 284 284 284 284
297 296 296 295 294 293 293 292 291 291 290 290 289 289 288 288 288 288 288 288 287 287 287 287 286 286 286 286 286 286 285 284 284 283 283 284 284 284 285 285 285 285 286 286 287 287 287 287 287 286 286 285 285 284 284 284 284 283 283 284 284 284
297 296 296 294 293 293 292 292 291 291 290 289 289 288 288 288 288 288 288 288 288 287 287 287 287 286 286 286 286 286 285 284 284 283 283 283 284 284 284 284 284 285 285 286 287 287 286 286 286 286 285 285 284 283 283 283 282 282 283 283 283 284
296 295 295 294 293 293 292 292 291 290 290 289 289 288 288 288 288 288 288 288 288 288 287 287 287 287 286 286 286 285 285 284 284 284 283 283 284 284 284 284 284 285 285 286 285 285 285 285 286 285 285 285 284 283 282 282 282 282 282 282 283 283
295 295 294 294 293 292 292 292 291 290 289 289 289 289 289 289 289 289 289 288 288 288 287 287 287 287 286 286 286 285 285 284 284 284 284 284 284 283 283 283 283 283 284 284 283 284 284 284 285 285 285 284 284 283 282 281 282 282 282 282 282 282
294 294 293 293 293 292 292 291 290 289 289 289 289 289 289 289 289 289 289 289 288 288 288 287 287 287 286 286 285 285 285 285 285 284 284 284 283 283 283 282 282 282 283 283 282 283 283 284 284 284 284 284 284 283 282 282 282 282 281 281 281 281
291 291 291 292 292 292 292 291 290 289 289 289 289 290 290 290 290 289 289 289 289 288 288 287 287 286 286 286 285 285 285 285 284 284 284 283 283 283 282 282 282 282 282 282 283 283 284 284 284 284 284 283 283 283 282 281 281 282 281 281 281 281
289 290 291 291 292 292 292 292 291 290 290 290 290 290 290 290 289 289 289 288 288 288 287 287 287 286 286 285 285 285 285 284 284 284 283 283 283 282 282 282 282 281 281 282 282 283 284 284 284 284 283 282 282 282 281 280 280 281 282 282 281 281
290 289 290 290 291 292 292 293 293 291 290 290 290 290 290 289 289 288 288 288 288 288 287 287 287 286 286 285 285 285 284 284 284 283 283 283 282 282 282 282 281 281 281 281 281 283 283 282 282 282 282 281 281 280 280 279 279 279 280 281 281 281
290 289 288 288 289 290 291 292 292 292 290 290 290 290 289 289 289 288 288 288 288 287 287 287 286 286 286 285 285 285 285 284 284 284 283 283 282 282 282 281 281 280 280 280 280 281 281 280 280 280 280 279 279 279 279 279 279 279 278 279 280 280
288 288 287 287 288 289 289 290 290 290 290 290 290 289 289 289 288 288 288 288 288 287 287 287 286 286 286 286 285 285 285 284 284 284 283 283 282 282 281 280 280 279 279 279 280 280 280 279 279 279 278 278 278 278 278 278 278 278 278 278 278 278
288 287 287 287 287 288 289 289 289 289 289 289 289 289 289 289 288 289 289 288 288 288 287 287 287 287 286 286 285 285 284 284 284 283 283 283 282 282 281 281 280 280 280 280 280 279 279 279 279 278 278 278 278 277 277 277 277 277 277 277 278 278
289 288 287 287 287 288 289 288 289 289 289 289 289 289 290 290 289 289 289 288 288 287 287 286 286 285 285 285 284 284 283 283 283 283 283 282 282 282 281 281 281 281 280 280 279 279 278 279 279 278 278 278 277 277 277 276 276 276 276 276 277 276
289 288 287 287 287 288 288 288 288 288 289 289 289 289 289 290 289 289 288 288 287 286 286 286 285 284 284 284 283 283 282 282 282 282 282 281 281 281 281 280 280 280 279 279 279 278 278 278 278 278 277 277 277 277 276 276 276 276 276 276 276 275
289 288 287 286 287 287 287 287 287 288 288 289 289 288 288 288 288 288 288 287 287 286 286 286 285 285 284 284 283 283 282 282 282 281 281 281 281 280 280 279 279 279 278 278 278 278 278 278 277 277 277 277 277 277 277 277 277 277 276 277 276 275
287 287 286 285 286 286 285 286 286 285 286 287 286 286 286 286 286 286 286 285 285 285 285 285 284 284 284 283 283 283 282 282 282 281 280 280 280 279 279 279 278 278 278 278 278 278 278 277 277 277 277 277 277 277 277 277 277 277 277 277 277 277
286 285 284 284 284 284 284 284 284 283 284 285 284 285 285 285 285 284 284 284 283 283 283 283 283 283 282 282 282 281 281 281 280 280 279 279 278 278 277 277 277 277 277 277 277 277 277 277 277 277 277 277 277 277 277 277 277 277 277 277 277 277
285 284 284 284 283 283 283 283 283 283 283 284 284 284 284 284 284 283 283 283 283 283 282 282 282 282 281 281 280 280 279 279 279 278 278 278 277 277 276 276 275 275 275 275 275 276 276 276 277 277 277 277 277 277 277 277 277 277 277 277 277 277
284 283 282 282 282 282 283 282 281 282 282 282 283 283 283 283 283 283 283 282 282 282 282 281 281 281 280 280 280 279 278 278 277 277 276 276 276 276 275 275 275 274 273 273 273 274 274 274 275 275 275 275 275 276 276 276 276 276 276 276 276 276
282 281 280 281 281 281 281 281 280 281 281 282 282 282 282 283 282 282 282 282 281 281 281 281 280 280 279 279 279 278 277 277 276 276 275 274 274 274 273 273 274 273 272 271 271 272 272 272 273 273 274 274 274 274 274 274 273 273 273 273 273 273

ECMWFFLT1_925_thetae_060.txt.gz
Theta_e
297 299 299 301 303 304 305 305 305 304 304 303 303 303 303 303 301 300 300 299 300 300 301 302 303 304 305 305 304 304 302 297 293 291 291 291 291 291 291 291 291 291 291 291 291 291 291 290 290 289 289 289 288 288 288 287 288 288 287 286 286 285
297 299 299 300 302 303 304 305 305 304 303 303 302 302 302 301 300 299 298 299 299 299 300 302 303 305 306 304 301 302 301 296 292 291 291 291 291 291 291 291 291 291 291 291 291 291 290 290 289 289 288 288 288 288 287 287 287 287 287 286 286 285
296 298 299 300 301 302 303 304 304 304 304 303 302 301 300 300 299 299 299 299 299 298 299 302 303 304 304 302 300 301 299 294 291 290 290 291 291 290 290 291 291 291 291 291 290 290 290 289 289 288 287 287 287 287 287 287 287 287 287 286 286 285
296 298 298 299 300 300 302 303 303 303 303 302 301 300 300 299 299 299 299 299 299 298 299 301 303 303 302 300 298 298 296 292 290 290 290 290 290 290 290 290 291 291 291 290 290 290 289 289 288 288 287 287 287 287 287 287 287 287 286 286 285 285
296 297 297 298 299 299 301 301 302 302 302 302 301 300 299 299 299 299 299 299 299 299 299 298 299 299 299 298 297 296 294 291 289 289 290 290 290 290 290 290 291 290 290 290 289 289 289 288 288 287 287 287 287 287 287 287 287 287 286 286 285 285
295 295 296 296 297 298 299 300 301 301 301 301 301 300 299 299 299 299 298 298 298 298 297 297 296 296 295 295 295 295 293 290 288 289 289 289 289 289 289 290 290 290 290 289 289 289 288 288 287 287 287 286 286 287 287 287 287 286 286 286 285 285
296 294 295 296 296 297 298 298 299 300 300 301 300 299 299 299 299 299 298 297 297 296 295 294 294 293 292 292 293 293 291 289 288 288 288 289 289 289 289 289 289 289 289 289 289 288 288 288 287 287 286 286 286 286 287 287 287 286 286 285 285 284
296 294 294 295 296 296 297 297 298 299 299 300 299 299 299 298 298 298 297 296 295 294 293 292 292 292 291 290 290 290 289 288 287 288 288 288 288 288 288 289 289 289 289 289 288 288 288 287 287 286 286 286 286 286 286 286 286 286 285 285 285 284
296 294 294 295 295 296 296 297 297 298 298 298 299 298 298 298 298 297 296 295 294 293 293 291 291 291 290 290 289 288 288 287 287 287 287 287 288 288 288 288 289 289 288 288 288 288 287 287 287 286 286 286 286 286 286 286 286 286 285 285 285 284
297 294 293 294 295 295 296 296 297 297 297 298 298 298 297 297 297 296 295 294 293 293 292 291 290 290 290 289 288 287 287 287 287 287 287 287 287 288 288 288 288 288 288 287 287 287 287 287 286 286 286 286 286 286 286 286 286 286 285 285 285 284
298 295 293 293 294 295 295 295 296 296 296 296 297 297 296 296 296 295 295 294 293 293 292 291 290 290 289 288 287 286 286 286 286 286 286 286 287 287 287 288 288 287 287 287 287 287 286 286 286 286 286 286 286 286 286 286 286 286 285 285 285 284
298 295 293 293 293 294 294 294 295 295 295 295 295 296 296 296 295 295 294 293 293 292 291 290 289 288 287 287 286 286 285 285 285 285 285 286 286 287 287 287 287 286 287 287 287 287 286 286 286 286 286 286 286 286 286 286 286 286 285 285 285 284
298 296 294 293 293 294 294 294 294 295 295 295 295 295 295 295 294 294 294 293 293 292 291 290 289 288 287 286 286 286 285 285 285 285 285 285 286 286 286 286 286 286 287 287 287 287 286 286 286 286 286 286 286 286 286 286 286 286 286 285 285 285
302 300 296 293 294 294 294 294 294 294 294 294 294 294 294 294 294 293 293 293 292 291 290 289 289 288 287 286 286 286 286 286 285 285 285 285 285 285 285 285 286 286 286 286 286 286 286 287 287 286 286 286 286 286 286 286 286 286 286 286 285 285
302 298 296 294 294 294 294 294 294 294 294 294 294 293 293 293 293 293 292 292 292 291 290 289 289 288 288 287 287 286 286 286 285 285 285 285 285 285 285 285 285 286 286 286 286 286 286 287 287 286 286 286 286 286 285 286 286 287 287 286 286 286
299 296 296 296 295 295 294 294 294 294 294 293 293 293 293 292 292 292 292 291 291 291 290 289 289 289 288 288 287 286 286 285 285 285 285 285 284 284 284 284 285 285 285 286 286 286 286 287 287 286 286 286 286 286 286 286 287 288 288 287 287 287
298 296 296 296 296 295 294 294 294 294 293 293 293 292 292 291 291 291 291 291 290 290 290 289 289 289 289 288 287 286 285 285 285 284 284 284 284 284 284 284 284 285 285 286 286 286 286 286 286 286 286 286 286 286 286 286 287 288 288 288 287 287
298 298 297 297 296 295 294 294 293 293 293 292 292 292 291 291 290 290 290 290 290 290 289 289 289 288 288 287 286 285 285 284 284 284 284 284 284 284 284 284 284 285 285 286 286 286 286 286 286 286 286 286 286 285 286 287 287 288 288 288 287 287
300 300 298 297 295 295 294 293 293 293 292 291 291 291 290 290 290 290 290 290 290 289 289 289 288 288 287 286 286 285 285 284 284 284 284 284 284 284 284 284 284 284 285 285 286 286 286 286 286 286 286 286 286 285 286 287 287 287 288 288 287 286
299 298 297 295 294 294 293 293 292 292 291 290 290 290 289 289 289 289 289 289 289 289 288 288 288 287 287 286 286 286 285 285 284 284 284 284 284 284 284 283 283 284 284 285 286 286 286 286 286 286 286 286 286 286 286 287 286 286 287 287 287 286
297 296 295 294 293 292 293 293 292 291 290 289 289 289 288 288 289 289 289 289 289 289 288 288 288 288 287 287 286 286 285 285 285 285 285 284 284 284 284 284 284 284 285 285 285 285 285 286 286 286 286 286 285 286 286 286 285 285 285 285 285 285
295 294 293 293 292 292 292 292 291 291 290 289 288 288 288 289 289 289 289 289 289 288 288 288 288 287 287 287 286 286 286 286 286 286 285 285 285 285 285 285 285 285 285 285 285 285 285 285 285 285 285 285 285 285 285 284 283 283 283 284 284 284
293 293 292 293 293 292 292 292 291 290 289 289 288 289 289 289 289 289 289 289 288 288 288 288 287 287 287 287 287 287 287 287 286 286 286 286 286 286 285 285 285 285 285 285 284 284 284 284 285 285 285 284 284 284 283 282 282 282 282 282 282 282
292 291 291 291 292 291 291 291 290 289 289 289 288 289 289 289 289 289 289 288 288 288 288 287 287 288 288 288 288 287 287 287 287 287 287 287 286 285 285 284 284 284 284 284 284 284 284 285 285 284 284 283 283 282 281 281 281 282 282 282 282 282
289 289 290 290 291 291 291 291 290 289 289 289 289 289 289 289 289 289 288 288 288 288 288 288 288 288 288 288 288 287 287 287 287 286 286 285 285 284 284 283 283 283 283 283 283 284 284 284 284 283 283 282 282 282 281 280 280 281 281 282 282 282
288 288 289 289 290 290 291 291 290 289 289 289 289 289 289 289 289 289 288 288 289 288 288 289 289 288 288 288 287 287 287 286 286 285 285 284 284 283 283 283 282 282 282 282 283 283 283 283 283 283 282 282 282 281 280 280 280 280 280 280 281 281
287 288 288 289 289 290 290 291 291 289 289 289 289 290 290 290 289 289 289 289 289 289 289 288 288 288 288 287 287 286 286 285 285 284 284 284 283 283 283 282 282 282 281 281 282 282 282 282 282 281 281 281 281 280 280 280 280 280 279 279 280 280
287 287 287 288 289 290 290 291 291 290 289 289 290 290 290 289 289 289 289 289 288 288 288 287 287 286 286 286 286 286 285 285 285 284 284 283 283 282 282 282 281 281 281 281 281 281 281 280 280 280 280 280 280 280 280 279 279 279 279 279 279 280
286 286 286 286 288 289 289 289 290 289 289 288 288 289 289 288 288 288 288 287 287 287 286 286 286 285 285 285 284 284 284 284 284 284 283 283 283 282 282 281 281 281 280 280 281 281 280 279 279 279 279 279 279 279 279 279 279 279 278 278 278 279
285 285 284 284 286 288 288 288 288 288 288 288 288 288 288 288 288 287 287 286 286 286 285 285 285 285 284 284 284 284 284 284 283 283 283 283 283 282 282 281 281 281 281 281 281 280 280 279 279 279 279 279 279 278 278 278 278 278 278 277 277 277
285 284 283 283 285 288 288 288 288 288 288 288 288 288 288 288 287 287 287 286 286 286 285 285 285 285 284 284 284 283 283 283 283 283 283 283 282 282 282 282 281 281 281 281 280 280 279 279 279 279 278 278 278 277 277 277 277 277 277 277 277 277
285 284 282 283 285 287 288 287 288 288 288 288 288 288 288 288 287 287 286 286 286 285 285 285 284 284 284 284 284 283 283 283 283 282 282 282 282 282 281 281 281 280 280 280 279 279 279 278 278 278 278 277 277 277 277 277 277 277 277 277 277 277
283 282 282 282 284 286 286 287 287 287 288 288 288 289 289 289 289 287 286 286 286 286 285 285 285 284 284 284 284 283 283 282 282 282 282 282 281 281 280 280 280 279 279 279 279 278 278 278 278 277 277 278 278 278 278 278 278 278 278 278 277 277
281 281 281 282 284 286 286 287 287 287 287 288 288 288 289 289 289 288 286 286 286 286 286 286 286 285 285 284 284 284 283 282 281 281 281 281 281 280 280 279 278 278 278 278 278 278 278 278 278 278 278 278 278 278 278 278 278 278 278 278 278 278
281 282 282 283 284 285 286 286 286 286 287 287 287 288 288 288 288 288 287 286 286 286 285 286 285 285 285 284 284 284 283 283 282 281 280 279 279 279 278 278 278 277 277 277 277 277 277 277 277 277 277 277 277 277 277 277 278 278 278 278 278 278
281 282 282 282 283 284 285 284 284 285 285 286 286 286 287 287 287 286 286 285 285 285 285 284 284 284 284 283 283 283 282 282 281 281 280 278 277 277 277 277 276 276 276 276 276 275 276 276 275 276 276 276 276 276 276 276 276 276 277 277 276 276
281 281 281 282 283 284 284 283 283 284 284 284 285 285 286 286 285 285 285 284 284 284 284 284 283 283 283 282 282 281 281 280 280 280 279 278 278 277 276 276 275 275 275 275 275 274 274 274 274 274 274 273 273 273 274 274 274 274 274 274 274 273
280 279 280 282 282 283 283 282 282 283 283 283 283 284 285 285 284 284 284 283 283 283 283 283 282 282 282 281 281 280 280 280 279 279 278 278 277 277 276 275 274 273 273 273 273 272 272 272 272 272 272 272 271 272 272 272 272 272 271 271 271 271

ECMWFFLT1_925_thetae_063.txt.gz
Theta_e
296 298 298 300 302 304 305 306 306 306 306 306 305 305 305 304 304 304 305 304 304 305 305 305 306 305 306 307 308 309 308 308 309 309 309 310 311 309 307 304 296 291 291 292 292 292 292 292 292 292 291 291 290 290 289 289 288 288 287 287 287 287
296 297 298 299 301 303 304 305 305 305 306 305 305 305 304 304 304 304 304 304 304 305 306 306 305 305 306 307 307 307 306 306 306 307 308 307 307 306 305 301 293 291 291 291 292 292 291 292 291 291 291 290 289 289 289 288 288 287 287 287 287 286
295 297 298 299 300 301 303 304 305 305 305 305 304 304 304 303 303 303 304 305 304 304 304 305 305 305 305 305 305 304 303 303 304 306 306 305 304 303 302 297 291 290 291 291 291 291 291 291 291 290 290 289 289 288 288 288 287 287 287 287 286 286
295 296 297 299 299 300 302 303 304 304 304 304 304 303 303 303 302 302 303 304 304 303 303 304 305 305 304 303 302 301 300 300 302 304 304 303 303 302 299 294 290 290 291 291 291 291 291 291 290 290 289 289 289 288 288 287 287 287 287 286 286 286
295 296 296 298 298 299 301 302 303 304 304 304 303 303 302 302 302 302 302 303 303 303 303 302 302 302 301 300 299 298 298 300 302 302 301 302 302 300 295 291 290 290 290 291 291 291 291 290 290 290 289 289 288 288 287 287 287 287 287 286 286 286
295 295 295 296 297 298 299 300 302 303 303 303 303 302 302 302 302 302 301 301 301 301 301 300 299 299 298 298 297 297 298 299 300 300 298 298 300 298 293 290 289 290 290 290 291 290 290 290 290 289 289 288 288 288 287 287 287 287 287 286 286 286
298 295 294 295 296 297 298 299 300 302 303 303 302 302 301 301 301 301 300 299 299 299 298 297 297 296 297 297 296 296 299 300 300 298 295 295 296 294 291 289 289 289 290 290 290 290 290 289 289 289 289 288 288 287 287 287 287 287 286 286 286 286
300 294 294 295 295 296 297 298 299 300 301 302 302 302 301 300 301 300 300 299 298 297 296 295 295 296 296 296 296 296 297 299 299 297 293 293 293 291 289 289 288 289 289 290 290 290 289 289 289 289 288 288 287 287 286 286 286 286 286 286 285 285
304 296 294 294 295 296 296 297 298 299 300 301 301 302 301 300 300 300 299 298 297 296 295 295 295 296 296 297 297 296 295 295 295 295 293 291 290 289 288 288 288 288 288 289 289 289 289 289 289 288 288 288 287 287 286 286 286 286 286 285 285 285
308 298 293 294 295 295 296 296 297 298 299 300 300 300 301 300 299 299 299 298 297 296 295 294 295 296 296 296 296 296 295 293 292 291 290 289 288 288 287 287 287 288 288 288 289 289 289 289 288 288 288 287 287 286 286 286 286 286 285 285 285 285
312 300 294 294 294 294 295 296 296 297 298 298 299 299 299 299 299 298 297 297 296 295 294 294 294 294 294 294 294 294 293 292 291 289 288 287 287 287 287 287 287 287 287 288 288 288 288 288 288 288 288 287 287 286 286 286 286 286 286 286 285 285
308 298 293 293 293 294 294 295 295 296 297 297 298 298 298 298 298 297 296 296 295 295 294 293 293 293 293 293 293 292 291 291 290 289 288 287 287 286 286 286 286 287 287 287 287 287 287 287 288 288 288 287 287 287 287 286 286 286 286 286 285 285
303 299 295 294 294 294 294 295 295 295 296 296 297 297 298 297 297 296 296 295 295 294 294 293 293 292 292 292 292 291 290 290 289 288 288 287 286 286 286 286 286 286 287 287 287 287 287 287 288 288 287 287 287 287 286 286 287 288 287 285 285 285
307 304 298 294 294 294 294 295 295 295 295 296 296 297 297 296 296 296 295 295 294 293 293 293 293 292 292 292 291 290 290 290 288 288 287 287 286 286 285 286 286 286 286 287 287 287 287 288 288 288 288 287 287 287 286 287 288 288 286 285 285 285
306 301 298 296 296 296 296 295 295 295 296 296 296 296 296 296 295 295 295 294 293 293 292 292 292 292 292 292 291 291 290 288 287 286 286 286 285 285 285 285 285 286 286 286 286 286 287 287 288 288 288 287 287 287 287 288 289 287 285 285 285 286
302 299 299 299 298 298 297 296 296 297 297 296 295 295 295 295 294 294 294 293 293 292 292 291 291 291 291 291 290 289 288 287 286 286 285 285 284 284 284 284 284 284 285 285 285 286 286 287 287 287 287 287 287 286 287 288 288 286 285 285 285 286
301 300 300 300 299 298 297 297 296 296 295 295 294 294 294 294 293 293 293 292 292 292 291 291 290 290 290 289 288 287 286 286 285 285 284 284 284 284 283 283 283 284 284 284 284 285 285 286 286 286 287 287 286 286 287 288 287 286 285 286 285 286
301 301 301 301 300 298 297 297 296 294 294 294 294 293 293 293 292 292 292 292 292 291 291 290 290 289 289 288 286 286 285 285 285 284 284 284 284 284 283 283 283 283 283 283 283 283 284 285 285 285 286 286 286 286 288 288 287 286 286 286 286 286
302 302 301 300 299 298 297 295 294 293 293 293 292 292 292 292 291 291 291 291 291 291 290 290 290 289 288 288 287 286 286 285 285 284 284 284 284 284 283 283 283 283 283 283 283 283 283 283 284 285 286 286 286 288 289 288 287 286 285 286 286 286
300 299 299 298 297 296 295 294 293 293 292 291 291 291 291 291 291 291 291 291 291 291 290 290 290 290 289 288 288 287 286 285 285 285 284 284 284 284 284 284 283 283 283 283 282 283 283 283 284 284 285 286 287 289 288 287 285 285 285 286 287 286
297 297 297 296 294 293 294 293 293 292 291 290 290 290 290 290 290 291 291 291 291 290 290 290 290 289 289 288 287 286 286 286 285 285 284 284 284 284 284 284 283 283 283 283 283 283 283 284 285 285 285 286 288 288 287 285 284 284 285 286 287 287
295 295 294 293 293 292 292 292 292 291 290 289 289 289 289 290 290 290 290 290 290 290 290 290 289 289 289 288 287 287 287 287 286 285 285 285 285 284 284 284 283 283 283 283 284 284 285 285 285 286 286 287 288 288 287 285 284 284 285 285 285 285
293 293 292 292 292 291 292 292 291 290 289 289 289 289 290 290 290 290 290 290 289 289 289 289 289 289 288 288 288 287 287 287 286 286 285 285 284 284 284 284 284 284 284 284 284 285 285 285 286 286 287 288 289 288 287 285 284 284 284 284 284 284
291 291 290 291 292 291 292 292 290 289 289 288 289 289 290 290 289 289 289 289 289 289 289 288 288 288 288 288 287 287 286 286 286 285 285 285 284 284 285 285 285 285 285 285 285 285 286 286 287 287 287 287 287 286 285 284 283 283 283 283 283 283
288 288 289 290 291 291 291 292 290 288 288 288 289 289 290 289 289 289 289 289 289 288 288 288 288 288 288 287 287 286 286 285 285 286 286 286 286 286 285 285 285 285 285 285 285 286 286 286 286 286 285 285 284 284 283 282 282 282 282 282 282 282
286 287 288 289 290 290 291 292 290 288 288 289 289 289 289 289 289 289 288 288 288 288 287 287 287 287 287 287 286 286 287 287 287 287 287 287 286 286 286 285 285 284 284 284 284 284 284 284 283 283 283 283 282 282 282 282 281 281 281 281 281 281
287 287 287 288 289 290 291 292 291 289 288 289 289 289 289 289 288 288 288 288 287 287 287 287 287 287 287 287 288 288 288 288 287 287 286 286 286 285 285 284 284 284 283 283 283 282 282 282 282 282 281 281 281 281 281 281 281 280 280 280 280 280
287 287 287 288 288 289 290 291 291 290 289 289 289 289 289 289 288 288 287 287 287 287 287 286 286 287 288 288 288 289 288 288 287 286 286 285 285 285 284 283 283 282 282 282 282 282 281 281 281 281 281 280 280 280 280 280 280 280 279 279 279 279
286 285 285 286 287 289 289 289 290 290 289 289 289 289 289 288 288 288 287 287 287 287 287 288 288 287 287 287 287 287 287 287 286 286 285 285 284 284 283 282 282 282 281 282 282 281 281 280 280 280 280 280 280 279 279 279 279 279 279 278 278 278
284 284 283 283 285 288 288 289 289 289 289 288 289 289 289 288 288 288 288 287 288 287 288 288 287 287 286 286 286 286 285 285 285 285 285 284 284 284 283 283 282 282 282 282 282 281 281 280 280 280 280 279 279 279 279 279 278 278 278 278 278 278
283 282 281 282 284 287 288 288 288 288 288 289 289 289 289 289 288 288 287 287 287 287 286 286 286 286 285 284 284 284 284 284 284 284 284 284 283 283 283 283 283 282 282 282 281 281 280 280 280 280 279 279 279 279 278 278 278 278 278 278 278 278
282 281 280 281 284 286 287 287 287 288 288 288 288 289 289 288 287 287 286 286 286 285 285 285 285 284 284 284 283 283 282 282 282 282 283 283 282 282 282 282 282 281 281 281 280 280 280 279 279 279 279 278 278 278 278 278 278 278 278 278 278 278
281 281 281 282 284 285 286 286 286 286 287 287 287 288 288 287 287 286 285 285 285 285 285 285 284 284 284 283 283 283 282 281 280 281 281 281 281 281 281 281 281 281 280 280 280 279 279 279 278 278 278 278 278 278 279 279 279 279 279 279 279 278
280 281 282 283 284 285 285 285 285 286 286 286 287 287 288 288 288 286 285 285 285 285 285 285 284 284 284 283 282 282 282 281 280 279 279 280 280 280 280 279 279 279 279 279 279 279 278 278 278 278 278 278 278 278 278 278 278 278 279 279 279 279
281 282 283 284 285 285 285 286 285 286 286 286 287 288 288 288 289 288 287 286 285 285 285 285 285 284 284 284 283 283 283 283 282 280 278 278 278 278 278 278 278 278 278 278 278 278 277 277 277 278 277 277 277 277 277 277 277 277 277 277 278 277
282 282 283 284 284 285 285 286 285 286 286 287 287 288 288 289 289 289 288 287 286 286 286 285 285 285 285 285 284 283 283 283 283 281 279 278 277 277 277 277 277 277 277 277 276 276 276 276 276 276 275 275 275 275 275 275 275 275 275 275 275 275
281 282 282 283 284 284 284 284 284 285 286 286 287 288 288 288 288 288 287 287 287 286 286 286 285 285 285 284 284 283 283 282 282 281 280 280 278 277 276 275 275 275 275 275 275 274 274 274 274 273 273 273 273 273 273 273 273 273 273 273 273 273
281 280 281 282 282 283 283 283 283 284 285 285 286 287 287 287 287 286 286 285 285 285 285 284 284 284 283 283 282 282 281 281 280 280 280 279 279 277 275 274 274 274 274 274 273 273 273 272 272 272 272 272 272 272 272 272 271 271 271 271 271 271

ECMWFFLT1_925_thetae_069.txt.gz
Theta_e
315 313 312 311 311 311 311 312 312 312 312 312 312 312 312 312 312 311 309 309 308 308 308 308 309 308 308 310 310 310 310 311 312 312 313 313 313 313 314 315 316 317 316 316 314 313 311 309 308 306 305 305 304 302 301 302 302 301 301 300 300 300
314 312 311 310 310 310 311 311 312 312 312 312 312 312 312 312 312 310 309 309 308 308 307 307 307 306 306 308 309 309 309 310 311 312 312 312 311 312 312 313 314 315 315 314 313 311 308 306 304 303 303 303 301 299 300 300 300 300 300 299 299 298
313 311 310 309 309 309 310 311 311 312 312 312 312 312 312 312 311 310 309 308 308 307 307 307 306 305 305 307 308 308 309 310 311 311 312 311 310 311 311 311 312 312 312 312 312 310 306 303 302 301 300 299 298 297 298 299 298 298 298 298 297 296
311 309 309 308 308 308 309 310 311 311 311 311 311 311 312 311 311 310 309 308 307 307 307 306 305 304 304 306 306 307 308 308 308 309 310 310 310 310 310 310 310 309 309 309 308 307 303 300 299 297 297 297 296 296 297 297 297 296 296 297 295 292
310 309 308 308 308 308 308 309 310 310 311 311 311 311 311 311 311 310 309 308 307 307 306 305 304 304 304 305 305 305 306 306 306 307 310 310 310 310 309 308 308 306 305 305 303 301 299 297 296 294 294 295 295 296 297 296 295 296 296 295 292 289
309 308 308 308 308 307 308 308 309 310 310 310 310 310 310 310 310 310 309 308 307 306 305 304 304 303 304 304 305 305 304 304 305 307 308 308 308 307 307 307 305 303 302 302 299 296 295 294 294 293 292 293 295 297 297 296 294 295 294 292 290 288
309 309 309 308 308 307 307 307 308 309 309 309 310 310 310 310 309 309 308 307 306 305 304 304 303 303 304 304 304 303 303 303 305 306 306 306 305 306 306 305 303 301 301 300 298 295 293 292 292 291 291 292 294 296 297 295 293 292 291 290 289 288
311 310 309 309 308 307 307 307 307 308 308 309 309 309 309 309 309 308 308 307 306 305 304 303 303 303 303 303 303 303 302 302 303 304 304 305 305 305 304 302 301 300 301 299 298 296 293 291 291 291 290 291 292 293 294 292 291 289 289 288 288 288
314 311 310 309 308 307 307 306 306 307 307 308 308 308 308 308 308 307 307 306 306 305 304 303 302 302 302 302 303 303 302 301 302 303 304 305 304 302 301 300 300 300 299 298 296 295 293 291 291 291 290 290 290 290 290 290 289 288 288 288 287 287
316 314 311 309 308 307 306 306 306 306 306 306 307 307 307 307 306 306 305 305 305 304 304 303 302 301 301 301 302 302 301 301 303 303 302 301 300 299 299 299 299 298 297 296 294 293 292 291 291 291 290 289 289 289 289 289 288 288 288 288 287 287
320 318 314 311 308 307 306 305 305 305 305 305 306 306 306 306 305 305 304 304 304 303 303 302 301 301 301 300 300 300 300 300 301 302 300 299 298 298 297 296 297 296 295 293 292 291 290 290 290 290 290 289 289 288 289 289 289 288 288 287 287 286
321 319 316 313 310 307 306 305 305 305 305 305 305 305 305 305 305 304 304 303 303 303 302 301 301 300 300 300 299 300 299 299 299 299 298 297 296 296 295 294 294 294 293 291 290 289 289 289 289 289 289 289 289 289 289 289 288 288 288 287 286 285
320 319 317 315 312 309 307 306 306 305 305 305 304 304 304 305 304 303 303 303 302 302 301 300 300 299 299 299 299 299 298 298 297 296 295 295 294 293 293 292 292 292 292 290 288 288 288 288 288 288 288 288 289 289 289 288 288 288 287 287 286 286
319 319 317 314 312 309 308 307 306 306 306 305 304 303 303 304 304 303 302 302 301 301 300 300 299 298 298 298 298 298 297 297 296 295 293 293 292 292 291 291 291 291 290 289 288 287 287 287 287 287 287 287 287 288 288 288 288 287 287 287 287 286
318 318 318 315 312 310 309 308 307 307 306 305 303 303 303 303 303 302 302 301 301 300 300 299 298 298 297 297 297 297 296 296 295 294 293 292 292 291 290 290 289 289 289 288 288 287 287 286 286 286 286 286 286 287 287 288 288 288 287 287 286 286
317 316 317 316 314 312 310 308 307 306 305 304 302 302 302 302 302 302 301 301 300 299 299 298 298 297 296 296 296 296 295 294 294 293 292 292 291 290 290 289 288 288 287 287 287 286 286 285 285 286 286 286 286 286 286 287 288 288 287 287 286 286
316 316 316 316 314 312 310 308 307 305 304 303 302 301 301 301 301 301 301 300 299 299 298 297 297 296 295 295 295 294 294 293 293 292 291 291 291 290 290 289 288 287 286 286 286 285 285 285 285 285 286 286 285 285 285 285 286 286 286 286 285 287
316 316 315 315 313 310 308 307 305 304 302 301 301 300 300 300 300 300 300 300 299 298 297 297 296 295 294 294 293 293 292 292 292 291 290 290 289 289 288 288 287 286 285 285 285 285 285 285 285 285 285 284 284 284 284 284 285 285 285 285 285 288
314 314 313 311 309 308 307 305 304 302 301 300 299 299 299 299 298 299 299 298 298 297 296 296 296 294 293 293 292 292 291 290 290 289 289 289 288 287 287 286 286 285 285 285 284 284 284 284 284 283 283 284 283 283 283 284 284 284 284 284 285 289
311 310 309 307 306 306 305 304 302 301 300 299 298 298 297 297 297 298 298 297 297 296 295 295 295 294 293 292 291 291 290 289 289 288 288 288 288 286 286 286 285 285 285 284 284 284 284 283 283 283 283 283 283 283 283 283 283 283 283 284 286 289
307 306 305 304 303 303 302 301 300 299 298 298 297 297 296 296 296 297 297 296 295 295 295 295 294 294 293 291 291 290 290 289 288 288 287 287 287 286 285 285 285 284 284 284 284 283 283 283 283 283 283 283 283 283 283 283 283 283 283 284 287 289
304 303 302 301 301 300 300 299 298 298 297 296 296 296 296 295 296 296 295 295 294 294 294 294 293 293 292 291 290 289 289 288 288 287 286 286 286 286 285 285 284 284 283 283 283 283 283 282 282 283 283 283 283 283 283 283 283 283 284 285 287 288
300 300 300 299 299 298 298 297 297 296 296 295 295 295 295 295 295 294 294 294 294 293 293 293 292 292 292 291 290 289 288 288 287 287 286 286 285 285 284 284 283 283 283 283 283 283 283 282 282 282 283 283 283 283 284 284 284 284 285 287 288 288
297 297 297 296 296 296 296 296 296 295 294 294 294 294 294 294 293 293 293 293 293 292 292 292 291 291 290 290 289 288 287 287 287 286 286 285 285 284 283 283 282 283 283 282 282 282 282 282 282 282 282 282 283 283 283 284 285 285 286 287 288 288
296 295 294 294 293 294 294 295 295 294 293 293 293 293 293 292 292 292 292 292 292 291 291 290 290 290 290 289 288 288 287 286 286 285 285 285 284 283 283 283 283 283 282 282 282 282 282 282 282 282 282 282 282 283 283 284 285 286 287 287 287 288
294 294 293 292 292 292 293 294 294 293 292 292 292 291 292 292 292 292 291 291 291 290 289 289 289 289 289 288 288 287 286 285 285 284 284 284 284 283 283 282 282 282 282 282 282 282 282 283 283 282 282 282 283 283 284 285 285 286 287 287 287 287
294 292 292 291 291 291 292 293 293 292 291 291 291 291 291 291 291 291 290 289 289 289 288 288 288 288 288 288 287 287 285 284 284 284 284 284 283 283 282 282 282 282 282 282 282 282 283 283 284 284 284 284 284 284 285 285 286 286 286 286 286 286
292 292 291 291 290 291 291 292 292 292 290 290 290 291 291 290 290 289 288 288 288 288 288 287 287 287 287 286 286 286 285 284 284 284 283 283 283 283 283 282 282 283 282 282 282 282 282 283 283 284 284 284 285 285 285 285 285 285 285 285 284 284
291 291 290 290 289 290 290 290 291 290 289 289 289 290 290 289 289 288 287 287 287 287 287 287 286 286 286 285 285 285 285 284 284 284 284 284 283 283 283 283 283 283 283 283 283 282 282 283 284 284 284 284 284 284 284 284 283 283 283 283 282 282
291 290 289 289 288 289 289 289 289 289 289 289 289 289 289 288 288 287 287 287 286 286 287 286 286 286 285 285 285 285 285 285 284 284 284 284 284 284 284 283 283 284 284 283 283 282 282 283 284 284 284 284 283 283 283 282 281 281 281 280 280 280
290 289 288 287 287 287 288 288 288 288 289 289 288 288 288 287 287 287 286 286 286 286 286 286 286 286 286 285 285 285 285 285 285 285 285 285 285 285 285 284 284 284 284 283 283 283 282 282 282 283 283 282 282 281 281 280 280 280 280 279 279 279
288 287 286 285 286 287 287 287 287 288 288 288 288 288 288 287 287 286 286 286 286 286 286 286 286 286 285 285 285 284 284 284 285 285 286 285 285 285 285 285 285 285 285 284 283 283 283 282 282 282 281 281 280 280 280 280 280 280 280 279 279 279
287 286 285 285 286 287 287 287 287 287 288 288 288 288 288 287 287 286 286 286 286 286 286 285 285 285 285 284 284 284 284 283 283 284 284 284 284 284 284 285 285 284 284 284 283 282 282 282 282 281 281 280 280 280 280 280 280 280 280 279 279 279
285 286 286 286 286 287 287 287 287 287 287 288 288 288 288 287 286 286 286 286 285 285 285 285 285 285 284 284 284 284 283 282 281 281 281 282 282 282 282 282 283 283 282 282 282 281 281 281 281 280 280 280 280 279 279 280 280 280 280 279 279 279
284 285 285 285 285 286 286 286 286 286 287 287 288 288 288 287 287 286 286 285 285 285 285 285 285 285 284 284 283 283 282 281 281 281 280 280 281 281 281 281 281 281 281 281 281 281 281 280 280 280 280 279 279 279 279 279 279 279 279 279 279 279
284 283 283 283 284 285 285 285 286 286 286 287 287 288 288 287 287 287 286 286 285 285 285 285 285 284 284 283 283 282 282 281 281 281 280 280 280 280 280 280 280 280 280 280 280 280 280 280 279 279 279 279 279 279 279 278 278 278 278 278 278 278
283 282 282 283 284 284 285 285 285 285 286 286 287 287 287 287 287 287 287 286 286 286 285 285 285 284 283 283 282 282 282 281 281 280 280 280 279 279 279 279 279 279 279 279 279 279 279 279 279 278 278 278 278 277 277 277 277 277 276 276 276 276
282 281 281 282 283 284 284 284 284 285 285 286 287 287 287 287 287 287 287 286 286 286 285 284 284 284 283 283 282 282 282 281 280 280 279 279 278 278 277 277 277 278 278 278 278 278 277 277 277 277 277 277 276 276 276 276 275 275 275 275 275 275

ECMWFFLT1_925_thetae_072.txt.gz
Theta_e
315 316 314 314 313 312 312 311 311 312 312 312 312 312 313 313 313 313 313 312 311 310 310 309 310 310 310 311 311 311 312 312 313 313 313 314 314 314 314 315 316 317 318 318 317 316 316 316 315 314 313 312 311 309 308 307 307 305 304 304 304 303
315 315 314 313 313 312 312 312 312 312 312 312 312 312 312 312 313 313 312 312 311 310 310 309 309 309 309 309 310 310 310 311 311 312 313 313 313 312 312 313 314 315 315 315 314 313 312 313 313 311 309 309 308 307 306 305 305 304 303 303 303 302
313 314 313 312 312 312 311 311 312 312 312 312 312 312 312 312 312 313 312 312 311 310 309 309 309 309 309 309 309 308 309 309 310 311 312 312 312 312 312 312 313 313 314 313 312 311 311 311 311 310 307 307 306 305 304 303 303 302 302 302 301 300
312 312 311 311 311 311 311 311 311 312 312 312 312 311 312 312 312 312 312 312 311 310 309 309 309 308 308 308 308 308 307 308 309 309 310 311 311 311 312 312 312 312 312 312 310 310 309 309 309 308 306 305 305 303 302 302 301 301 300 300 299 298
311 312 310 310 310 309 310 311 311 311 311 311 311 311 311 312 312 312 312 311 310 310 309 308 308 308 308 308 307 306 306 307 308 308 309 309 310 311 311 311 312 312 311 310 308 308 308 307 306 305 303 304 304 302 301 301 300 299 299 299 298 297
311 310 308 309 309 309 309 309 310 311 311 311 311 311 311 311 312 312 312 311 310 310 309 308 308 307 307 307 306 305 305 305 306 307 307 308 309 309 310 310 310 310 309 307 306 306 306 305 305 303 301 301 302 301 301 299 298 298 298 298 297 296
313 308 307 309 308 308 308 308 310 310 310 311 311 311 311 311 311 312 311 311 310 309 309 308 307 307 307 306 306 304 304 304 305 305 306 307 307 308 308 308 308 308 307 306 305 305 305 304 303 302 300 300 299 299 299 298 297 296 297 297 296 295
317 308 307 309 308 308 308 307 308 309 309 310 310 311 311 311 311 311 311 311 310 309 309 308 307 307 306 306 305 304 304 304 304 304 305 305 306 306 306 306 306 306 306 306 305 305 304 303 301 300 299 298 297 297 297 296 295 295 295 295 294 294
324 314 308 309 310 309 309 308 307 308 308 309 310 310 310 310 311 311 310 311 310 309 309 308 307 307 306 305 305 304 304 303 303 304 304 304 304 304 304 304 304 304 306 306 304 303 301 300 299 298 297 296 295 295 294 294 294 294 293 293 292 291
331 322 310 309 311 310 309 309 308 307 308 308 308 309 309 310 310 310 310 310 309 309 308 308 307 306 305 304 304 303 303 303 303 303 303 303 303 303 303 303 303 304 304 303 301 300 299 297 296 295 294 293 293 293 293 293 293 292 291 291 289 288
328 324 312 309 310 309 309 309 308 307 307 307 308 308 309 309 309 309 309 309 309 309 308 307 306 306 305 304 303 303 302 302 302 302 302 302 301 302 302 302 302 302 301 300 299 298 297 295 294 293 292 292 291 292 292 292 292 291 290 288 287 286
319 317 311 309 311 309 308 308 308 307 307 307 307 307 308 309 308 309 309 308 309 308 307 307 306 305 304 303 302 302 302 302 301 301 301 301 300 300 300 300 300 299 299 298 297 297 295 294 293 292 291 290 290 291 291 291 290 290 289 287 286 286
318 316 312 310 312 311 310 309 309 308 307 307 307 307 307 308 308 308 308 308 308 307 306 306 305 304 304 302 302 301 301 301 301 300 300 299 299 298 299 299 298 297 297 296 296 295 294 293 293 291 290 290 290 290 290 289 289 288 288 286 286 285
319 318 314 311 312 313 313 312 310 308 308 308 308 307 307 306 307 307 307 307 307 306 305 305 304 304 302 301 301 300 300 300 300 299 298 297 297 297 297 296 296 296 295 294 293 293 292 292 291 290 289 290 290 289 289 288 288 287 287 286 285 285
315 314 312 312 313 314 314 314 312 310 310 310 309 308 306 306 306 306 306 306 305 305 304 304 303 303 302 301 300 299 299 299 298 297 297 296 296 296 295 295 295 295 294 293 292 291 290 289 289 288 288 289 288 288 287 287 287 286 286 286 285 285
312 311 312 313 314 314 314 315 314 312 312 311 309 307 306 305 306 306 305 305 304 304 303 303 302 302 301 300 299 298 298 297 296 296 296 295 295 294 294 293 293 293 292 291 290 289 288 287 287 287 287 287 287 286 286 286 286 285 285 285 285 285
310 311 313 313 314 314 314 314 314 312 311 309 308 307 306 305 305 305 304 304 303 303 302 302 301 300 299 298 298 297 297 296 296 295 295 294 294 294 293 293 292 291 290 290 289 289 288 287 286 286 287 286 286 286 285 285 285 285 285 285 284 284
311 311 312 313 313 313 313 313 312 311 309 308 307 306 305 305 304 304 303 303 303 302 302 301 300 299 298 297 296 296 295 295 295 295 294 293 292 292 292 291 291 291 290 289 288 288 287 286 286 286 286 285 285 285 285 285 285 285 284 284 284 284
312 312 311 311 311 311 311 311 310 309 307 306 305 305 304 303 302 302 302 302 302 302 301 300 299 298 297 296 295 295 295 294 294 294 294 292 291 291 291 290 290 289 289 288 287 286 286 285 285 285 285 284 284 284 284 285 284 284 283 283 284 284
311 310 309 308 309 309 309 308 307 307 306 304 304 303 302 301 301 301 301 301 301 301 300 299 298 297 296 295 295 294 294 293 293 293 293 292 291 290 290 289 289 288 287 287 286 286 285 285 284 285 284 284 284 284 284 284 284 284 283 283 283 284
308 308 307 306 306 306 306 305 305 305 304 303 302 301 300 300 300 300 300 300 300 300 299 298 297 297 296 295 294 294 293 292 292 292 291 291 290 290 288 288 288 287 286 286 286 285 285 284 284 284 284 284 284 284 284 284 284 283 283 283 284 287
304 305 305 304 304 304 303 303 303 302 302 301 300 299 299 299 299 299 299 299 299 298 298 297 297 296 296 295 294 293 292 291 291 290 289 289 289 289 287 287 287 286 286 285 285 284 284 284 284 283 284 284 284 284 284 284 284 283 283 284 287 290
302 301 301 301 301 301 301 301 300 300 300 299 298 298 298 298 298 298 298 297 297 297 296 296 296 296 295 294 293 292 291 290 290 289 288 288 288 287 286 285 286 285 285 284 284 283 283 283 283 283 284 284 284 284 283 284 284 284 283 284 287 290
300 299 299 299 299 298 298 299 298 298 298 297 297 297 297 297 297 297 296 296 296 295 295 295 295 294 293 292 292 291 289 289 289 288 288 287 287 286 285 284 284 284 283 282 282 282 282 282 282 284 284 284 283 283 284 284 284 285 284 284 286 288
298 298 297 297 296 296 296 296 297 297 296 296 296 296 296 296 296 295 295 294 294 294 294 293 293 293 292 291 290 290 288 288 287 287 287 286 286 285 284 283 283 283 282 281 281 282 282 282 282 284 285 284 283 283 283 284 284 284 284 284 285 287
296 296 296 295 295 295 295 295 295 295 295 295 295 295 294 294 294 294 293 293 293 292 292 292 291 291 290 290 289 289 288 287 286 286 286 285 285 284 283 282 282 282 281 281 281 281 281 282 282 284 285 285 284 283 283 283 283 283 284 285 286 287
295 295 294 294 293 293 293 294 294 294 294 293 293 293 293 293 293 292 292 291 291 291 290 290 290 290 289 289 289 288 287 286 285 285 284 284 284 283 282 282 282 282 281 281 281 281 281 281 283 284 285 285 285 284 283 283 284 285 285 286 286 287
294 294 293 293 292 292 292 293 293 294 293 292 292 292 292 292 292 291 290 290 289 289 289 289 288 288 288 288 288 287 286 285 285 284 284 284 283 283 282 282 282 282 281 281 281 281 281 281 282 284 285 285 285 285 284 284 285 285 285 286 286 286
293 293 292 292 291 291 291 292 292 292 292 291 291 291 291 291 291 289 289 288 288 288 288 288 287 287 287 286 286 286 285 285 285 284 283 283 283 283 282 282 282 282 282 282 281 281 281 281 281 282 283 284 284 285 285 285 285 285 285 285 285 284
292 292 292 291 291 291 291 291 291 291 291 291 291 291 290 290 289 288 288 287 287 287 287 287 286 286 286 285 285 285 284 284 284 284 283 284 284 284 283 283 283 283 282 282 282 281 281 281 282 282 283 283 283 284 284 284 285 285 285 285 284 284
291 291 291 291 290 290 290 290 290 291 291 290 290 290 290 289 288 288 287 287 287 287 286 286 286 285 285 285 285 284 284 284 284 284 284 284 284 285 285 284 283 283 283 283 283 282 282 281 282 283 284 284 284 284 284 284 284 284 284 284 284 283
291 291 291 290 289 289 289 289 289 290 290 290 290 290 290 289 288 287 287 287 286 286 286 286 285 285 285 285 284 284 284 284 284 285 285 284 284 285 285 285 284 284 284 284 284 284 285 285 284 284 284 284 284 284 284 284 284 283 283 282 281 281
290 290 290 289 288 288 288 289 289 289 289 289 289 290 290 288 287 287 287 286 286 286 286 286 285 285 285 285 284 284 284 284 284 284 285 285 285 285 285 285 285 284 285 285 284 284 285 286 285 284 284 283 283 282 282 281 281 281 280 280 280 280
289 289 289 288 288 288 288 288 288 288 288 288 289 289 289 288 287 287 286 286 286 286 286 285 285 284 284 284 284 284 283 283 282 283 283 284 284 285 284 285 285 284 284 285 285 284 283 283 283 283 282 281 281 280 280 280 280 280 280 280 280 279
289 289 288 287 287 287 287 287 287 287 287 288 288 288 288 288 288 287 286 286 286 286 286 285 284 284 284 283 283 283 283 282 282 281 281 282 282 283 283 283 284 284 283 283 283 283 283 282 281 281 280 280 280 280 280 280 280 280 280 280 279 279
288 288 287 286 286 286 286 286 286 287 287 287 288 288 288 288 288 287 286 286 286 285 285 284 284 284 283 283 283 283 282 282 281 281 281 281 281 281 281 281 282 282 281 281 281 281 281 281 280 280 280 280 280 280 280 280 280 280 280 280 279 279
287 286 286 286 285 285 285 286 286 286 287 287 287 287 287 287 287 287 286 286 285 285 284 284 284 284 283 283 283 283 282 281 281 281 281 280 280 280 280 281 281 280 281 281 281 281 281 280 280 280 280 280 280 280 280 280 279 279 279 279 278 278
286 285 285 285 285 284 284 285 286 286 286 286 287 287 287 287 287 286 286 285 285 285 284 284 284 284 283 283 283 282 282 281 281 280 280 280 280 279 280 280 280 280 280 280 281 281 280 280 280 280 280 280 280 279 279 279 278 278 278 278 278 278

ECMWFFLT1_925_thetae_075.txt.gz
Theta_e
311 315 314 314 313 312 312 311 311 311 311 312 312 312 313 313 313 314 314 314 314 314 314 313 313 312 312 312 311 311 311 312 314 314 314 314 314 314 313 313 314 314 314 315 315 315 314 314 313 313 314 313 314 314 315 315 314 313 311 311 310 308
313 316 315 315 315 313 313 312 311 311 311 311 312 312 312 312 313 313 313 314 314 313 313 313 312 312 311 311 311 311 310 311 313 313 313 313 313 313 313 313 314 314 314 315 315 315 314 314 313 312 312 312 312 313 313 313 313 312 311 310 308 307
314 317 314 315 315 313 313 312 312 312 311 311 311 312 312 312 312 313 313 313 313 313 313 312 312 311 311 311 310 310 310 311 312 312 312 312 312 312 313 313 313 313 314 314 314 314 313 313 312 311 311 310 310 310 311 311 310 309 309 308 306 305
312 314 312 313 313 312 313 312 312 312 311 312 312 312 312 312 312 312 313 313 313 313 313 312 312 311 311 310 310 310 310 310 310 311 311 311 310 311 311 312 312 312 313 313 314 314 312 311 311 310 309 309 309 308 308 308 308 307 307 306 305 304
310 311 310 311 311 311 311 311 311 311 311 312 312 312 312 311 312 312 312 313 313 313 313 312 312 311 310 310 309 309 309 309 309 309 309 309 309 310 310 310 311 311 311 311 312 312 311 310 309 309 309 308 308 307 306 306 306 306 306 305 304 304
312 311 310 310 310 310 310 310 310 311 311 311 311 312 312 311 312 312 312 312 312 312 312 312 311 311 310 310 309 309 309 308 309 309 308 308 308 309 309 309 310 310 310 310 310 310 310 309 308 308 308 308 307 306 305 305 305 305 305 305 304 303
317 310 309 311 309 310 310 309 310 310 310 311 311 311 311 311 312 312 312 312 312 312 312 312 311 310 310 309 309 309 308 308 308 308 307 307 307 308 308 309 309 309 309 309 310 310 310 309 308 308 307 307 306 304 304 303 303 303 303 303 302 302
317 308 309 311 310 311 311 309 310 310 309 310 310 310 311 311 311 311 311 312 312 312 312 311 311 310 310 309 309 308 308 308 308 307 307 306 306 306 307 307 308 308 308 309 309 310 309 309 308 308 307 306 304 302 301 301 302 302 301 301 301 301
327 313 309 311 312 311 312 310 310 310 309 310 310 310 310 311 311 311 311 312 311 311 312 311 311 310 310 309 309 308 308 307 307 306 305 305 305 305 306 306 306 307 307 307 308 308 308 307 307 307 305 304 303 301 300 299 299 300 299 299 299 299
330 315 307 311 312 311 311 311 311 310 309 310 310 309 310 310 310 311 311 311 311 311 311 311 311 310 310 309 308 308 307 307 306 306 304 304 304 304 304 305 305 306 305 306 306 307 306 305 305 305 303 302 301 299 298 297 298 298 297 297 297 297
326 316 307 309 311 310 311 311 311 311 310 310 310 309 309 309 309 310 310 310 311 311 311 311 310 310 309 309 308 307 307 306 306 305 304 303 303 303 303 304 304 304 304 304 304 304 303 303 303 303 302 301 299 297 296 296 296 296 296 295 295 294
320 312 305 307 309 309 311 310 311 311 310 311 311 309 309 309 308 309 310 310 310 310 310 310 310 310 309 308 307 307 306 306 305 305 303 303 303 302 302 302 302 302 302 302 302 302 301 301 302 302 302 300 298 296 295 295 295 295 295 294 293 291
318 311 305 307 309 310 311 311 312 312 311 311 311 311 310 309 308 309 309 309 310 310 310 310 309 309 308 307 307 306 305 305 304 304 303 302 302 302 301 301 300 300 301 301 301 301 301 300 301 301 299 297 296 295 294 294 293 293 293 292 291 289
320 314 308 307 309 311 311 311 312 312 311 312 311 311 310 307 307 308 308 309 309 309 309 309 308 307 307 306 306 305 304 304 303 303 302 301 301 300 300 299 299 299 299 299 299 299 299 299 300 299 297 295 294 293 293 292 292 292 291 291 290 289
314 310 308 308 310 311 311 312 311 311 312 313 312 310 308 307 307 307 308 308 308 308 308 307 307 306 306 306 305 304 304 303 303 302 301 300 300 299 298 298 298 298 298 298 298 298 297 298 298 296 294 293 292 291 291 291 291 291 290 289 289 288
307 307 308 309 310 311 312 312 312 312 313 313 312 310 308 308 307 307 307 307 307 307 306 306 306 306 306 305 305 304 303 302 302 301 300 299 298 297 297 296 296 296 297 297 296 296 296 296 295 294 292 291 290 289 289 290 291 290 290 289 288 287
305 307 309 310 310 311 311 311 311 312 312 312 311 310 309 308 307 306 307 306 306 306 305 305 305 305 304 304 303 303 302 301 301 300 299 298 297 297 296 295 295 296 295 295 295 294 294 294 293 292 291 290 289 288 289 289 290 289 289 288 287 286
306 306 307 308 309 309 309 309 310 310 311 311 310 309 308 307 306 306 306 305 305 305 305 305 304 304 303 302 301 301 300 299 299 298 298 297 296 295 295 294 295 295 294 294 293 292 292 291 290 289 289 289 288 288 289 289 288 288 287 287 285 285
306 306 306 306 307 307 307 307 307 308 308 309 309 308 307 305 305 305 305 305 305 305 304 304 303 303 302 301 300 299 298 298 297 297 297 295 294 294 293 293 294 294 293 293 291 290 290 288 287 287 287 287 288 288 288 287 287 286 285 285 284 283
305 305 305 305 305 306 305 304 305 306 306 307 307 306 305 304 304 305 304 304 304 304 303 303 303 302 301 300 299 299 298 297 296 296 295 294 294 293 293 293 292 292 291 291 289 289 288 287 286 286 286 286 287 287 286 286 285 284 284 283 283 283
303 303 303 303 303 304 303 303 303 303 303 305 305 304 303 304 304 304 304 303 303 303 302 302 302 301 300 299 299 298 297 297 296 295 294 293 293 293 292 291 291 290 289 289 289 288 288 288 287 287 286 286 286 286 285 285 284 283 282 282 282 282
301 301 301 301 301 301 301 301 301 301 301 302 302 302 302 303 303 303 302 302 302 301 301 301 301 300 300 299 298 297 297 296 295 293 292 292 291 291 290 289 289 289 288 287 287 287 287 287 286 285 285 286 285 285 285 284 283 283 282 281 281 282
300 300 300 300 300 300 299 299 299 299 300 300 300 300 301 302 302 301 300 300 300 300 300 300 300 300 299 298 297 296 295 294 293 292 291 291 290 289 289 288 288 288 287 286 286 285 285 285 285 284 285 285 284 284 284 284 283 283 282 281 281 282
299 299 300 300 299 298 298 298 297 298 298 298 298 300 300 300 299 299 299 299 299 299 299 299 299 298 297 297 296 295 293 292 292 292 291 290 289 288 288 287 286 286 285 284 284 284 284 284 284 284 285 285 284 284 284 283 283 283 283 282 282 283
298 299 300 300 299 298 297 297 297 297 296 297 298 299 298 298 298 298 298 297 297 297 297 297 297 296 296 295 294 293 292 291 290 290 289 289 288 287 286 285 285 284 283 283 283 283 283 284 284 284 285 285 284 283 283 283 284 284 284 283 282 284
298 298 299 300 299 297 296 295 295 295 295 296 298 297 296 297 297 296 296 296 296 296 295 295 295 295 294 294 293 292 291 289 289 288 288 288 287 286 284 284 283 283 282 282 282 282 283 283 284 284 284 284 284 283 283 284 284 284 284 284 284 286
298 297 298 299 299 297 296 295 294 294 294 296 297 296 295 296 296 295 295 295 294 294 294 293 293 293 293 292 291 290 289 288 288 287 286 286 286 285 283 283 282 282 282 281 282 282 282 283 284 285 285 284 283 283 283 283 284 284 284 285 287 289
297 296 296 297 298 297 295 295 294 293 294 295 295 295 295 295 294 294 294 293 293 292 292 292 291 291 291 290 290 290 289 288 287 286 285 285 284 284 283 282 282 282 281 281 281 282 282 283 284 285 285 284 283 283 283 283 284 284 284 286 288 289
295 295 294 295 296 296 295 294 294 294 294 294 293 293 293 293 293 293 292 292 291 291 290 290 289 289 288 288 288 288 288 287 286 286 285 284 284 283 282 282 282 281 281 281 281 282 283 284 285 286 285 284 284 284 284 284 284 284 284 285 286 287
294 294 294 294 295 295 294 293 293 293 293 293 292 292 292 292 292 292 291 290 290 289 289 289 288 287 287 287 287 287 286 286 285 285 284 284 284 284 283 282 282 282 281 281 281 281 283 284 285 286 285 285 285 285 285 285 284 285 285 285 285 285
294 294 293 293 294 294 293 292 292 292 292 292 292 292 291 291 291 291 290 289 288 288 288 288 287 287 287 286 286 286 286 286 285 285 285 284 284 284 284 283 282 282 282 282 281 282 282 283 284 285 285 285 285 285 285 285 285 285 285 285 285 285
293 293 293 293 293 293 292 292 292 291 291 291 291 291 291 290 290 289 288 288 287 287 287 286 286 286 286 286 285 285 285 285 285 285 285 285 284 284 284 284 284 284 283 283 283 282 282 282 283 285 286 285 285 284 284 284 284 285 285 285 285 285
293 292 292 293 293 292 291 291 291 291 290 290 290 290 290 290 289 288 287 287 286 286 286 286 285 285 285 285 285 284 284 284 284 284 285 285 285 285 285 285 285 285 285 285 284 283 282 282 283 284 285 285 284 284 284 284 284 284 284 284 284 284
292 291 292 292 292 291 291 290 290 290 290 290 289 289 289 289 288 287 287 286 286 286 286 285 285 285 284 284 284 284 284 284 284 284 284 285 285 285 285 285 285 285 285 285 285 284 284 283 282 283 284 284 284 284 284 284 284 284 284 284 284 283
291 291 291 291 291 291 290 289 289 290 289 289 289 288 288 288 288 287 287 287 286 286 286 285 285 284 284 284 284 284 284 284 284 284 284 284 285 285 284 284 285 285 284 284 285 285 285 284 283 283 283 283 283 283 284 284 284 283 283 283 283 282
291 291 290 290 290 290 289 289 289 289 289 288 288 288 288 288 288 287 287 287 286 286 286 285 284 284 284 284 284 283 283 283 283 283 283 284 284 284 284 283 284 284 284 284 284 285 285 284 284 284 284 284 284 283 283 283 283 282 282 281 281 280
290 290 290 289 289 288 288 288 288 288 288 288 287 287 287 287 287 287 287 287 286 286 285 285 284 284 283 283 283 283 283 283 283 283 283 283 283 282 282 282 282 283 283 283 283 284 284 284 283 283 283 283 282 282 282 281 281 281 281 280 279 279
289 289 289 288 288 287 286 287 287 287 287 287 287 287 287 287 287 287 287 286 286 286 285 284 284 283 283 283 283 282 282 282 282 282 282 282 282 282 281 281 281 282 282 282 282 282 282 282 282 282 281 281 281 281 281 281 281 281 280 279 279 279